Temperature
15 16 16 15 15 14 13 14 14 15 16 17 17 17 18 18 17 15 14 12 10 8 5 3 2 1 1 1 1 1 -0 -1 -1 -2 -3 -3 -4 -4 -5 -6 -7 -8 -8 -9
14 15 15 14 14 14 14 14 14 15 15 16 18 18 18 17 16 15 14 12 11 8 6 4 3 2 1 1 1 1 0 -1 -1 -2 -3 -3 -4 -4 -5 -5 -6 -7 -8 -9
12 15 14 13 14 13 13 13 13 13 14 15 16 16 17 17 16 15 15 13 12 10 8 5 4 3 2 2 1 1 -0 -1 -1 -2 -3 -3 -4 -4 -4 -5 -6 -7 -8 -9
12 14 12 15 16 16 14 14 13 13 14 14 15 17 17 17 16 16 15 14 13 11 9 6 4 3 2 2 1 1 -0 -1 -1 -2 -2 -3 -3 -4 -4 -5 -6 -7 -8 -8
11 11 12 15 15 14 13 13 14 13 14 14 16 14 15 18 17 17 15 14 13 11 9 7 5 3 2 2 1 1 0 -1 -1 -2 -2 -3 -3 -3 -4 -5 -5 -6 -7 -8
10 9 11 15 14 14 14 12 15 15 13 15 14 11 14 18 17 16 15 13 12 11 9 7 5 4 3 2 1 1 0 -0 -1 -2 -2 -3 -3 -3 -4 -4 -5 -6 -7 -8
8 8 11 14 12 12 13 15 19 18 18 17 13 14 17 17 16 15 14 13 11 10 9 8 6 4 3 2 2 1 0 -1 -1 -2 -2 -3 -3 -4 -4 -4 -5 -5 -6 -7
8 8 10 12 11 12 15 18 19 19 19 18 17 17 17 16 16 15 14 12 11 9 8 7 6 4 3 3 2 1 -0 -1 -1 -2 -2 -3 -3 -3 -4 -4 -5 -5 -6 -7
11 12 15 14 14 16 17 16 17 18 18 17 16 17 17 17 16 15 14 12 10 9 7 6 5 5 4 3 2 1 -0 -1 -1 -2 -2 -3 -3 -3 -4 -4 -5 -5 -6 -7
12 12 15 15 16 16 17 17 17 17 17 17 16 17 17 16 16 15 14 12 10 8 7 6 5 5 4 3 2 1 -0 -1 -1 -2 -2 -3 -3 -4 -4 -4 -5 -5 -6 -7
11 12 15 16 17 17 18 18 17 17 17 17 16 16 16 16 15 14 13 12 10 8 7 7 6 5 4 2 2 1 -0 -1 -1 -2 -2 -3 -3 -4 -4 -4 -5 -6 -6 -7
13 14 13 15 17 17 17 17 17 16 16 16 16 15 15 15 14 13 12 11 10 9 7 6 5 5 4 3 2 1 -0 -1 -1 -2 -2 -3 -3 -4 -4 -4 -5 -5 -6 -7
15 15 15 16 16 16 16 16 16 15 15 15 15 14 14 14 13 12 11 10 10 9 8 6 4 4 4 3 2 1 0 -0 -1 -2 -2 -3 -3 -4 -4 -4 -5 -5 -6 -7
14 14 14 15 15 15 15 15 15 14 14 14 13 13 12 12 12 11 11 11 10 8 7 5 4 4 4 3 2 1 0 -1 -1 -2 -2 -3 -3 -4 -4 -4 -5 -5 -6 -6
13 13 14 14 14 14 14 14 13 13 13 12 12 11 11 11 11 11 11 10 9 7 6 4 3 3 3 3 2 1 0 -0 -1 -2 -2 -3 -3 -4 -4 -4 -5 -5 -6 -6
12 12 12 12 12 12 12 12 11 11 11 11 10 10 10 10 10 10 10 9 8 7 7 5 4 3 3 3 2 1 0 -0 -1 -2 -2 -3 -3 -4 -4 -4 -5 -5 -6 -6
11 10 10 10 10 10 10 10 10 9 9 9 9 9 9 9 9 9 9 8 7 7 6 5 3 2 2 2 2 1 1 -0 -1 -2 -2 -3 -3 -4 -4 -4 -5 -5 -6 -6
9 9 9 9 8 8 8 8 8 8 8 8 8 8 8 8 8 8 7 6 6 5 5 3 1 0 1 1 1 1 1 -0 -1 -1 -2 -2 -3 -4 -4 -4 -5 -5 -6 -6
8 8 7 7 7 7 7 7 7 7 7 7 7 7 7 7 7 7 6 5 5 4 4 2 0 -1 -1 0 1 1 0 -0 -1 -1 -2 -2 -3 -4 -4 -4 -5 -5 -6 -6
6 6 6 6 6 6 6 6 6 6 6 6 6 6 7 7 7 6 5 5 5 4 3 1 -0 -1 -1 -1 -0 0 0 -0 -1 -1 -2 -2 -3 -3 -4 -4 -5 -5 -6 -6
5 5 5 5 5 5 5 5 5 5 5 5 5 5 6 6 6 6 5 5 5 3 1 -0 -1 -2 -2 -2 -2 -1 -0 -0 -1 -1 -1 -2 -3 -3 -4 -4 -5 -5 -6 -6
4 4 4 4 4 4 4 4 4 4 4 4 5 5 5 5 6 5 6 5 4 2 -0 -1 -2 -3 -3 -3 -3 -2 -1 -0 -1 -1 -1 -2 -3 -3 -4 -4 -5 -5 -6 -6
4 3 3 3 3 2 2 3 3 3 3 3 3 4 4 4 5 4 5 4 3 1 -1 -2 -3 -4 -4 -4 -3 -2 -1 -1 -0 -1 -1 -2 -2 -3 -3 -4 -4 -5 -6 -6
3 3 2 2 2 2 1 2 2 2 2 2 3 3 3 4 4 4 4 3 2 1 -1 -3 -4 -5 -6 -5 -4 -3 -2 -1 -0 -1 -1 -1 -2 -3 -3 -4 -4 -5 -6 -6
2 2 1 1 1 1 1 1 1 1 1 1 2 2 3 3 3 3 3 3 2 -0 -2 -4 -5 -5 -6 -6 -5 -4 -2 -0 -0 -0 -1 -1 -2 -3 -3 -4 -4 -5 -5 -6
1 0 0 0 -0 -0 0 0 0 0 1 1 1 2 2 2 2 2 2 2 1 -1 -3 -4 -5 -6 -7 -6 -6 -4 -2 -1 -0 -0 -1 -1 -2 -2 -3 -4 -4 -5 -5 -6
-0 -0 -1 -1 -1 -1 -1 -1 -1 -0 -0 0 0 1 1 1 1 1 1 1 0 -1 -3 -5 -5 -6 -7 -7 -6 -5 -3 -2 -1 -0 -1 -1 -2 -2 -3 -3 -4 -5 -5 -6
Wind_Speed
11 11 8 10 11 12 15 14 11 11 14 15 9 7 7 4 5 7 9 11 13 13 13 12 12 12 11 10 10 9 8 7 7 5 4 5 7 8 9 9 11 9 10 10
7 10 8 10 14 16 18 17 19 18 20 17 11 9 7 7 6 9 11 12 14 14 14 15 15 13 12 11 10 9 8 7 6 5 5 7 8 8 9 9 10 10 9 9
6 3 4 10 15 17 10 12 11 18 16 10 9 9 8 8 9 10 11 12 14 16 16 15 15 14 13 11 9 9 9 8 7 6 6 7 8 9 9 9 10 10 9 9
5 4 11 10 4 7 12 13 14 14 13 10 11 8 8 9 11 12 11 11 13 14 15 13 13 13 11 11 11 10 9 8 8 7 7 7 8 9 9 9 9 9 9 10
3 5 10 12 8 6 8 9 13 18 18 16 10 7 9 12 13 13 11 10 12 13 13 13 14 14 13 12 11 10 10 9 8 8 7 7 8 9 9 9 8 8 8 9
5 6 9 10 2 3 3 8 11 14 15 13 3 4 8 6 6 9 8 7 9 11 13 14 14 15 15 14 13 13 12 10 9 8 8 8 9 9 7 7 8 8 8 8
8 9 11 10 6 7 5 8 7 11 12 10 9 11 8 6 7 8 8 8 10 12 14 14 15 16 16 15 15 13 10 9 9 8 8 8 8 6 7 7 7 7 8 8
8 9 13 8 10 11 11 4 5 7 9 10 11 13 12 10 10 10 9 10 11 12 12 13 16 17 17 16 13 11 11 10 8 8 7 6 6 7 6 6 6 7 7 8
14 14 8 11 12 9 5 6 7 6 8 9 11 12 13 12 11 11 11 11 11 12 12 13 16 18 18 15 13 13 12 10 8 8 7 6 6 6 5 4 4 5 5 7
8 12 10 9 10 12 14 15 14 12 13 11 13 15 15 13 11 10 11 12 12 13 15 16 17 17 16 14 15 14 13 11 9 8 7 6 5 5 4 4 4 4 5 6
9 8 9 12 13 17 17 15 15 15 15 15 14 16 16 14 12 11 11 12 13 16 18 18 17 17 15 15 16 15 13 11 9 8 6 5 5 5 5 5 5 5 4 4
14 10 9 11 9 10 13 15 15 15 16 14 13 16 16 14 12 10 11 12 14 17 17 17 17 17 16 16 17 16 13 12 9 8 6 5 5 4 7 6 8 9 8 8
21 17 15 17 18 16 15 16 16 15 16 16 14 12 13 13 11 10 11 14 17 19 17 16 18 18 18 17 18 17 14 12 10 9 7 6 5 4 3 4 5 7 8 8
16 15 16 17 18 18 17 17 15 14 13 12 12 12 12 12 11 11 13 15 15 15 16 16 18 19 19 18 18 17 15 15 12 9 8 7 6 5 4 3 3 4 5 7
17 16 17 17 17 17 15 13 14 15 14 13 11 12 12 13 14 14 13 11 12 14 16 18 19 19 19 20 20 18 15 11 10 9 8 7 6 5 4 4 4 3 3 3
15 14 14 15 17 16 14 12 12 13 13 12 12 12 13 13 14 13 10 10 13 18 18 19 20 19 20 21 20 16 14 19 15 10 9 8 7 6 5 4 3 3 3 2
12 11 11 12 12 11 10 10 10 11 12 13 14 14 13 12 11 12 11 12 15 16 17 19 17 16 20 21 20 15 13 16 20 13 10 9 7 7 6 5 4 3 3 3
5 6 7 7 8 10 11 11 11 12 12 13 13 13 12 12 13 14 12 10 11 13 14 14 13 15 19 20 17 14 14 13 12 11 10 9 8 7 6 6 5 4 3 3
9 9 9 9 9 9 9 10 11 11 12 12 12 13 13 13 13 13 9 9 12 16 12 13 23 20 18 22 21 13 14 15 13 11 10 13 11 8 7 6 5 5 4 3
8 7 8 9 9 9 10 10 11 11 12 11 12 13 14 13 12 11 10 12 13 10 10 15 18 17 19 21 24 14 15 16 15 13 12 11 10 9 8 7 6 5 4 3
8 9 10 11 11 11 11 11 11 12 12 12 12 13 14 14 12 10 9 12 10 9 11 20 17 15 18 20 25 15 16 15 15 14 13 12 11 10 9 8 7 6 5 4
9 10 12 12 13 14 12 11 12 13 13 12 12 12 12 13 11 10 11 11 7 12 11 12 12 19 24 25 17 16 16 16 15 13 13 12 11 11 10 10 8 7 6 5
10 11 13 14 15 15 14 13 13 13 13 13 13 13 13 12 9 9 11 7 6 13 12 10 18 27 31 22 16 17 17 17 15 14 13 12 12 11 10 10 9 8 7 6
12 13 13 14 14 14 16 16 14 13 13 13 13 13 11 10 9 9 9 9 11 14 10 15 25 30 31 17 16 16 16 16 15 14 13 12 11 10 10 10 9 8 7 7
13 14 14 14 14 14 15 15 14 13 13 12 12 12 10 9 9 8 7 8 12 14 9 16 26 29 22 14 16 16 16 15 15 14 14 13 12 12 11 10 10 9 8 7
13 13 13 14 14 14 13 13 13 12 11 11 11 9 8 8 9 9 7 8 10 13 10 9 14 21 16 15 15 15 14 16 17 15 14 14 13 13 11 11 12 10 9 8
14 13 12 12 11 10 11 12 13 13 12 12 13 10 8 8 7 8 9 8 8 8 8 9 11 13 14 14 14 14 13 13 14 14 14 13 13 12 12 13 11 10 9 8
Wind_Direction
270 280 253 242 240 209 213 221 231 246 252 261 264 283 290 270 195 186 183 186 191 191 189 185 184 185 185 183 176 175 183 201 221 241 272 287 287 285 284 284 288 282 283 286
273 257 250 261 251 235 229 233 243 261 272 271 281 276 269 262 236 220 214 203 198 194 192 190 188 186 182 180 173 169 183 199 210 230 254 266 273 277 280 281 282 282 281 285
265 232 321 267 243 224 218 216 210 237 247 272 273 261 257 262 256 241 227 209 199 198 197 193 188 183 181 177 166 170 184 195 204 221 246 260 274 281 283 286 286 284 283 285
272 293 251 246 258 229 218 232 217 238 259 275 269 284 282 263 254 252 237 212 200 195 193 185 177 173 170 167 168 175 186 196 202 216 239 255 267 275 279 280 280 282 285 286
241 253 271 279 249 201 210 262 225 230 250 260 271 315 285 255 236 233 228 208 195 187 181 175 173 170 167 170 171 179 192 197 200 208 230 248 260 267 272 278 285 287 287 289
210 223 247 257 179 107 139 275 240 208 229 246 206 284 272 247 214 220 211 187 174 168 169 173 173 167 171 178 181 192 195 194 193 201 219 239 253 264 275 285 289 295 298 298
219 230 255 260 146 125 183 247 209 195 215 220 200 226 243 216 219 216 206 185 168 168 177 179 170 169 180 185 193 192 183 183 189 199 218 238 253 267 280 287 296 303 306 304
194 213 249 211 153 190 223 266 222 216 221 225 233 250 257 244 234 218 204 188 177 179 183 176 172 176 186 193 188 173 173 179 188 202 222 239 250 264 273 288 302 307 309 310
200 218 243 176 204 231 279 282 269 262 260 252 257 263 266 261 245 224 207 197 187 185 183 181 181 184 192 190 173 169 171 180 189 202 217 228 240 256 273 286 291 299 309 315
239 247 256 239 239 256 260 259 262 263 266 263 259 264 269 266 254 231 210 199 190 187 192 194 190 191 192 177 170 170 176 183 189 198 211 225 235 238 245 263 282 296 307 313
254 265 284 266 243 247 257 261 262 261 257 254 256 263 264 265 258 236 214 199 193 199 202 200 192 192 187 175 171 173 178 184 188 191 198 218 231 232 239 227 239 268 265 285
254 247 244 262 258 251 257 263 263 266 271 264 250 258 265 265 258 236 214 199 200 206 207 200 191 190 187 178 174 175 181 186 187 186 192 204 219 252 275 260 265 279 286 295
261 267 262 268 273 272 271 275 275 271 270 275 271 260 261 264 258 236 215 203 207 209 207 199 192 191 187 179 177 179 182 181 183 184 187 194 200 211 250 290 291 287 286 299
270 274 272 269 271 273 273 276 282 283 281 275 274 271 265 265 261 241 226 217 210 203 203 200 195 194 187 180 179 182 180 183 182 182 183 187 192 196 206 230 274 291 302 310
267 265 267 272 275 277 280 285 290 292 294 290 280 274 269 265 259 250 238 216 200 200 203 202 201 195 183 181 182 182 180 182 181 176 179 182 184 186 199 219 237 261 286 313
275 278 278 278 279 284 292 297 296 298 302 300 297 287 277 267 262 256 237 202 199 210 207 205 204 192 180 180 182 182 183 184 178 177 178 181 183 187 196 207 223 247 270 274
279 284 285 290 298 307 313 314 309 307 308 306 300 296 292 283 273 262 243 217 213 215 209 207 201 184 180 181 181 180 178 183 181 179 180 181 183 187 190 192 205 225 242 256
343 345 345 344 342 336 331 326 319 313 304 298 299 300 297 286 275 268 253 229 220 223 214 201 188 181 180 180 181 178 175 176 178 178 178 181 184 185 184 187 198 215 232 256
20 9 359 352 342 328 317 311 308 305 301 302 305 302 295 284 275 271 258 227 221 229 217 193 192 184 182 183 180 177 174 174 176 178 177 186 188 184 184 185 193 203 209 216
356 347 338 327 325 319 309 303 304 305 304 305 304 302 298 291 284 276 258 240 234 226 193 189 192 186 182 185 183 179 176 174 175 176 178 182 183 184 185 187 187 192 198 203
333 327 323 318 314 310 304 299 300 298 298 297 293 291 291 290 285 273 263 263 248 208 189 195 193 187 183 185 185 181 178 175 175 176 178 182 184 185 186 185 185 189 192 192
318 316 314 309 306 302 298 293 290 288 288 287 284 283 286 288 284 271 253 253 248 205 195 197 192 190 187 186 186 182 179 177 175 175 177 180 182 184 184 183 183 185 183 181
308 306 304 301 298 295 293 289 285 282 280 279 279 279 277 277 275 273 277 251 222 214 204 199 195 193 191 188 186 184 181 178 176 176 178 180 182 182 181 180 180 177 174 178
303 300 295 292 292 291 290 287 279 276 273 273 269 263 262 272 277 259 253 254 229 223 212 204 200 196 193 189 185 184 183 180 177 175 175 177 178 178 177 176 175 172 173 174
295 293 291 291 290 288 286 285 283 279 276 275 269 261 252 244 252 265 258 241 235 231 215 208 203 198 193 189 186 185 183 181 176 173 173 175 177 178 176 174 174 172 173 175
291 289 287 282 281 284 286 285 284 281 277 277 276 268 257 248 248 256 256 240 229 231 215 199 198 200 193 188 186 184 182 180 176 175 173 174 176 175 175 174 170 172 172 172
286 285 287 287 283 278 279 280 281 282 277 273 276 272 257 249 247 250 249 242 232 227 210 194 191 193 189 185 183 182 181 178 174 172 172 173 175 176 176 171 172 169 167 167
Height
1543 1538 1537 1538 1536 1537 1538 1533 1531 1517 1508 1495 1492 1492 1491 1491 1490 1490 1489 1488 1487 1486 1486 1487 1488 1490 1492 1494 1496 1497 1498 1498 1498 1497 1495 1493 1490 1487 1483 1479 1475 1470 1465 1461
1542 1534 1533 1534 1528 1527 1526 1523 1517 1511 1502 1487 1489 1488 1486 1486 1486 1485 1483 1482 1480 1479 1479 1479 1480 1482 1485 1488 1490 1491 1492 1493 1493 1492 1491 1489 1486 1483 1479 1475 1470 1466 1461 1457
1546 1532 1534 1533 1514 1513 1512 1505 1507 1508 1495 1486 1486 1484 1483 1482 1480 1479 1477 1475 1473 1472 1471 1472 1473 1475 1478 1481 1484 1485 1487 1487 1488 1487 1486 1484 1481 1478 1475 1471 1466 1461 1457 1453
1545 1536 1543 1510 1497 1496 1498 1494 1494 1491 1486 1483 1482 1480 1479 1477 1475 1472 1470 1468 1466 1465 1464 1465 1467 1469 1473 1476 1477 1479 1481 1482 1482 1482 1481 1479 1477 1474 1471 1467 1462 1458 1453 1449
1544 1544 1527 1505 1493 1493 1495 1492 1483 1483 1481 1478 1477 1477 1472 1470 1468 1465 1463 1461 1460 1458 1458 1458 1460 1462 1466 1468 1471 1473 1474 1475 1476 1477 1476 1475 1473 1470 1467 1463 1459 1455 1450 1445
1542 1545 1533 1501 1491 1489 1493 1494 1473 1473 1473 1472 1474 1479 1469 1464 1462 1459 1457 1455 1453 1451 1451 1451 1453 1455 1458 1461 1463 1465 1468 1470 1471 1471 1471 1470 1468 1466 1463 1460 1456 1451 1447 1443
1540 1536 1515 1489 1488 1491 1499 1483 1466 1465 1466 1467 1468 1466 1461 1458 1455 1453 1450 1448 1446 1444 1443 1444 1445 1448 1450 1453 1455 1459 1462 1463 1465 1465 1466 1465 1464 1462 1459 1456 1452 1448 1444 1439
1527 1530 1512 1480 1485 1485 1474 1465 1463 1462 1461 1461 1460 1457 1455 1452 1449 1446 1443 1441 1438 1437 1436 1437 1438 1440 1442 1444 1449 1452 1455 1457 1459 1460 1460 1460 1459 1458 1456 1453 1449 1445 1440 1436
1498 1489 1474 1471 1469 1465 1464 1462 1459 1458 1457 1457 1454 1451 1448 1445 1442 1439 1436 1433 1431 1430 1429 1429 1429 1431 1434 1437 1442 1444 1447 1450 1452 1454 1455 1455 1455 1453 1452 1449 1446 1442 1437 1433
1481 1472 1469 1467 1465 1463 1461 1458 1455 1454 1452 1451 1447 1444 1441 1437 1434 1431 1428 1425 1423 1422 1420 1419 1420 1422 1426 1431 1434 1437 1440 1443 1446 1447 1449 1450 1450 1449 1448 1446 1443 1439 1435 1430
1474 1466 1465 1460 1458 1456 1453 1451 1448 1446 1445 1443 1441 1436 1433 1429 1426 1423 1420 1417 1415 1412 1410 1410 1412 1415 1419 1422 1426 1429 1433 1436 1439 1441 1443 1444 1445 1445 1444 1442 1439 1436 1432 1428
1463 1460 1460 1453 1452 1451 1449 1445 1442 1440 1436 1435 1434 1429 1425 1421 1418 1415 1411 1408 1405 1403 1401 1401 1403 1406 1410 1413 1417 1421 1425 1428 1431 1434 1437 1438 1440 1440 1439 1439 1436 1434 1430 1426
1455 1454 1452 1447 1444 1443 1441 1437 1435 1433 1429 1426 1424 1422 1418 1413 1409 1405 1402 1399 1395 1393 1393 1393 1393 1396 1400 1404 1408 1413 1416 1421 1424 1427 1430 1432 1434 1435 1435 1435 1433 1431 1428 1424
1449 1447 1442 1438 1435 1433 1432 1429 1427 1423 1420 1418 1415 1412 1408 1404 1399 1396 1392 1389 1386 1384 1384 1384 1385 1386 1391 1395 1400 1405 1409 1413 1417 1420 1423 1426 1428 1429 1430 1430 1430 1428 1425 1422
1440 1439 1434 1430 1427 1425 1423 1421 1418 1414 1411 1408 1406 1402 1398 1394 1389 1386 1383 1380 1377 1374 1373 1374 1374 1376 1381 1386 1391 1396 1401 1405 1409 1413 1417 1420 1422 1424 1425 1426 1425 1424 1422 1420
1431 1429 1426 1423 1419 1417 1416 1414 1411 1407 1404 1400 1397 1393 1389 1384 1379 1375 1372 1370 1367 1364 1363 1363 1363 1366 1371 1376 1382 1388 1393 1398 1403 1406 1410 1413 1416 1419 1420 1421 1421 1421 1419 1417
1423 1420 1419 1417 1415 1413 1411 1409 1406 1401 1397 1393 1388 1384 1379 1374 1369 1364 1361 1359 1356 1354 1353 1353 1354 1358 1362 1367 1373 1379 1385 1390 1395 1400 1403 1407 1410 1413 1415 1416 1417 1417 1416 1415
1417 1416 1414 1413 1410 1408 1405 1403 1400 1396 1391 1386 1381 1376 1371 1366 1360 1356 1352 1349 1346 1343 1341 1342 1347 1350 1353 1359 1365 1371 1377 1382 1387 1392 1396 1400 1404 1407 1410 1412 1413 1413 1413 1412
1412 1412 1410 1409 1407 1404 1401 1398 1394 1390 1385 1380 1375 1369 1364 1359 1354 1349 1344 1340 1336 1332 1332 1335 1337 1341 1344 1350 1357 1363 1369 1375 1380 1385 1390 1395 1398 1401 1404 1407 1408 1409 1409 1409
1410 1409 1407 1404 1402 1399 1395 1392 1387 1383 1378 1374 1368 1362 1357 1352 1347 1341 1336 1331 1327 1325 1325 1326 1328 1330 1334 1341 1348 1355 1361 1367 1373 1378 1384 1388 1392 1395 1399 1401 1404 1405 1405 1405
1407 1405 1402 1399 1395 1392 1389 1385 1380 1375 1371 1367 1362 1356 1350 1345 1340 1334 1328 1323 1320 1318 1317 1317 1319 1321 1325 1332 1339 1345 1353 1359 1365 1371 1377 1381 1386 1390 1393 1396 1399 1400 1401 1402
1402 1399 1396 1393 1388 1383 1380 1376 1372 1366 1362 1358 1353 1348 1343 1337 1332 1327 1322 1317 1313 1311 1309 1309 1310 1313 1317 1324 1330 1336 1343 1350 1357 1364 1370 1375 1379 1383 1387 1391 1393 1396 1397 1398
1396 1393 1389 1385 1380 1374 1369 1366 1362 1357 1352 1348 1344 1340 1335 1330 1325 1319 1313 1310 1306 1303 1301 1301 1303 1307 1311 1316 1321 1328 1335 1342 1349 1356 1362 1368 1373 1378 1382 1385 1388 1391 1393 1394
1388 1384 1380 1375 1371 1365 1358 1354 1351 1347 1343 1338 1334 1331 1326 1321 1316 1312 1307 1302 1298 1296 1294 1294 1296 1300 1305 1308 1313 1320 1327 1335 1342 1349 1356 1362 1367 1372 1376 1380 1383 1386 1389 1390
1380 1375 1370 1365 1360 1355 1349 1344 1340 1335 1332 1327 1323 1321 1318 1313 1308 1304 1300 1295 1291 1289 1287 1288 1290 1293 1298 1301 1306 1312 1319 1327 1335 1342 1349 1356 1361 1366 1370 1374 1378 1382 1384 1386
1370 1365 1360 1356 1351 1346 1341 1336 1331 1326 1322 1317 1313 1310 1308 1304 1300 1296 1291 1287 1284 1282 1281 1281 1284 1287 1291 1294 1299 1306 1313 1321 1329 1336 1343 1350 1355 1360 1364 1369 1373 1377 1380 1382
1359 1354 1349 1344 1340 1336 1332 1328 1322 1317 1313 1309 1304 1300 1298 1295 1291 1287 1284 1280 1277 1274 1273 1275 1277 1280 1284 1289 1294 1300 1307 1315 1322 1330 1338 1344 1349 1354 1359 1364 1368 1372 1375 1378